Starlink 30523

operational
NORAD ID: 57997 Int'l Des: 2023-153 Owner: SPXS Country: US Constellation: starlink
LEOCIRCULAR

关于 Starlink 30523

正在加载描述...

实时位置

正在加载3D地球...

即将过境

高度历史

Altitude vs Time

uPlot chart will show altitude changes over time

两行轨道根数

1 57997U 23153G 25349.79483568 .00000180 00000-0 28387-4 0 9995
2 57997 43.0024 164.8493 0001268 265.5652 94.5045 15.02532742122255
Epoch: Dec 15, 2025 • Age: 25 hours

当前状态

高度 571.6 km
速度 7.58 km/s
星下点 -43.10°S, 43.72°E
发射日期 Oct 5, 2023
运行时间 2.1 years
类型 internet

技术详情

分类 Payload
质量 730.00 kg
干质量 700.00 kg
总质量 730.00 kg
长度 0.30 m
直径 4.10 m
跨度 29.00 m
形状 Box + pan
制造商 SPXS
平台类型 Starlink V2M
阶段状态 In Orbit
所有者/国家 SPXS/US

大型星座

Loading constellations...